Theta_e
288 288 288 287 287 287 286 286 286 285 285 285 285 285 284 285 285 285 285 285 285 285 285 285 285 285 285 285 285 285 285 284 284 284 284 284 284 284 284 284 284 284
287 287 287 287 286 286 286 286 286 285 284 285 285 285 285 285 284 285 284 284 284 284 284 284 284 283 284 284 284 284 283 283 283 283 283 283 283 283 283 283 283 284
287 287 287 286 285 285 285 286 286 285 285 285 285 285 284 284 284 284 283 284 284 283 283 283 283 283 283 283 283 283 283 283 282 282 282 282 282 282 282 282 282 282
287 287 287 286 286 285 286 286 286 285 285 285 284 284 284 284 284 283 283 282 282 282 282 283 282 282 282 282 283 283 282 282 282 282 282 282 282 282 282 282 282 282
286 286 286 286 286 286 286 286 285 285 284 284 284 284 283 283 283 282 282 282 282 282 282 282 282 282 282 282 282 282 282 282 282 281 281 281 282 281 281 282 281 281
286 286 286 285 285 285 285 285 284 284 284 283 283 283 283 283 282 282 282 282 282 281 281 281 281 281 281 281 281 281 281 281 280 280 280 280 281 281 281 281 281 280
284 284 284 284 284 285 284 283 284 284 284 284 283 283 283 282 282 282 282 282 281 281 281 281 281 280 281 281 281 280 280 279 279 279 279 279 280 279 280 280 280 279
284 284 284 283 283 283 282 282 282 282 282 283 282 282 282 282 282 282 281 281 281 280 280 280 280 280 280 280 279 279 279 280 279 278 278 278 279 279 279 280 279 279
283 283 282 282 282 282 282 283 283 282 283 282 282 282 282 281 281 280 280 280 280 280 280 279 279 279 279 279 278 278 278 278 278 278 278 278 278 278 278 279 279 279
282 282 281 282 282 283 282 283 282 282 282 281 281 281 281 280 280 279 279 279 279 279 279 278 278 278 278 278 278 277 277 277 277 277 278 278 278 278 278 278 278 278
282 282 283 283 283 283 282 282 282 282 281 281 280 280 280 280 279 279 278 278 278 278 277 277 277 277 277 277 277 277 277 277 277 277 277 277 278 278 278 278 277 277
283 283 283 283 283 283 282 282 282 281 281 280 279 279 279 278 278 278 278 277 277 277 277 277 277 277 276 276 276 276 276 276 277 277 277 277 278 278 278 278 277 277
283 283 283 283 283 283 282 282 281 280 279 279 278 278 278 277 277 277 277 277 276 276 276 276 276 276 276 276 276 275 276 276 277 277 277 277 277 277 277 277 277 277
283 283 283 283 283 282 282 281 280 279 278 278 277 277 276 276 276 276 276 276 276 276 275 275 275 275 275 275 275 275 276 277 277 277 277 277 277 277 277 277 277 277
283 283 283 283 282 281 281 280 279 278 277 277 276 276 276 276 275 275 274 275 275 274 274 274 274 274 274 274 274 276 277 277 277 277 276 276 276 277 277 277 276 276
283 282 282 282 281 281 280 279 278 277 276 275 275 275 275 275 274 274 274 274 273 273 273 273 273 274 273 273 274 276 277 277 276 276 276 276 275 275 276 276 276 276
282 282 282 281 281 280 279 278 276 275 275 275 274 274 273 273 273 273 273 273 273 272 272 272 272 272 272 274 275 276 276 276 276 275 276 276 275 275 275 275 276 276
282 282 281 281 280 279 277 276 275 274 274 273 273 272 272 272 272 272 272 272 272 272 271 271 272 272 272 274 275 276 277 276 276 275 275 275 275 275 275 275 275 274
282 282 281 280 279 277 276 274 273 273 272 272 271 272 271 271 271 271 271 271 271 270 270 271 271 271 272 273 274 276 276 276 275 275 274 274 275 274 274 274 273 273
282 281 280 279 278 276 274 273 272 272 272 272 271 270 270 270 271 270 270 270 270 269 269 270 270 270 271 273 274 275 276 276 275 274 274 274 274 274 273 273 272 272
281 280 280 278 276 274 273 273 272 272 271 271 270 270 270 269 269 269 269 268 268 268 268 268 268 270 271 273 274 274 275 276 274 274 273 273 273 272 272 272 272 272
280 279 279 276 274 273 272 272 271 271 270 270 269 270 269 269 269 268 267 266 267 266 266 267 268 270 270 272 273 274 275 274 273 272 271 271 271 272 272 272 272 272
280 279 277 275 273 272 271 272 271 270 269 269 268 269 269 268 268 267 267 266 265 265 265 266 267 268 269 271 272 273 273 271 271 271 271 270 271 271 271 272 272 272
279 278 276 274 272 272 271 271 271 270 269 268 268 267 268 267 267 266 265 265 264 264 264 264 265 267 269 270 271 272 272 271 271 270 270 270 270 271 272 272 272 272
277 277 275 273 272 271 270 270 269 268 268 267 266 267 266 266 265 265 265 264 264 263 264 265 265 266 267 269 270 271 272 271 271 270 269 269 270 270 271 271 271 272
275 274 274 272 271 270 269 269 268 267 266 266 266 266 266 266 265 264 263 263 264 263 262 263 263 264 264 268 270 271 272 271 271 270 269 269 270 270 270 271 271 272
Wind_Speed
7 7 7 7 6 6 6 6 5 5 5 4 4 4 4 4 4 4 4 4 5 5 5 5 5 5 4 5 5 4 4 5 4 4 4 4 3 4 3 5 4 4
8 8 7 7 6 5 5 5 5 5 5 4 4 4 4 4 3 4 4 4 5 5 4 4 5 5 5 4 4 4 3 3 3 3 3 4 3 3 3 4 4 4
8 8 8 8 7 8 7 6 5 4 5 4 4 4 3 3 4 4 3 3 3 4 4 4 4 4 4 4 3 3 3 3 3 3 2 2 2 2 3 2 3 3
8 7 8 8 8 8 6 6 5 5 4 4 4 3 3 2 2 3 3 3 3 3 3 3 4 4 3 3 3 3 3 3 3 3 3 2 2 3 4 3 3 3
9 8 7 7 6 6 6 6 6 5 6 5 4 3 2 2 2 2 2 3 3 3 3 3 4 4 4 4 4 3 3 3 3 4 4 4 3 3 4 4 4 4
7 7 7 7 7 6 6 6 6 6 6 5 4 3 3 2 3 3 3 4 3 4 4 4 4 4 4 4 4 4 4 4 4 4 4 4 3 3 3 4 5 5
9 8 8 7 7 6 7 6 5 5 4 4 4 3 2 2 3 3 4 4 4 4 5 4 5 5 4 4 4 4 3 3 4 4 4 4 4 5 4 4 5 5
10 8 8 7 7 7 6 6 5 4 4 4 4 3 3 3 3 3 3 4 4 4 3 3 3 4 4 3 4 4 4 3 4 5 5 5 5 5 5 4 5 6
9 8 8 8 7 6 7 6 5 4 3 3 3 3 2 2 2 2 2 2 2 2 2 2 3 3 3 3 4 4 5 4 4 5 5 6 6 6 6 6 6 6
9 8 9 8 8 6 7 6 5 4 3 3 3 2 2 2 2 1 1 1 1 1 1 2 2 3 3 3 4 4 5 5 5 5 5 6 6 7 7 6 7 7
10 10 10 9 8 7 7 7 5 4 3 3 2 2 2 1 1 1 1 1 0 0 1 1 2 2 3 3 3 4 5 5 5 5 6 6 7 7 7 7 7 7
9 9 9 9 8 8 8 6 5 4 4 3 2 2 2 1 1 0 0 1 1 2 2 2 2 3 3 4 4 4 5 5 5 6 6 7 7 7 7 7 7 7
8 8 8 8 7 7 7 6 5 5 4 3 2 2 1 1 1 1 2 2 2 2 2 2 3 3 3 4 4 4 5 5 6 6 7 6 7 7 7 7 7 7
8 7 7 7 7 7 6 6 5 5 4 3 3 2 2 1 2 2 2 2 3 2 2 2 3 3 4 4 4 4 5 6 6 6 7 7 7 7 7 7 7 8
7 5 5 6 7 7 6 6 6 5 4 4 3 2 1 2 1 2 3 3 3 3 2 2 3 3 3 3 4 5 5 6 6 7 7 8 8 7 7 7 7 7
7 5 6 7 7 7 7 7 6 5 5 4 4 3 2 2 2 3 4 4 4 4 3 3 3 3 4 7 8 6 7 7 7 7 8 8 8 8 8 7 8 7
7 7 7 8 7 7 5 6 6 5 4 4 4 3 3 3 2 4 4 4 4 4 4 3 3 4 7 9 9 10 8 7 7 8 8 8 8 8 8 8 7 8
7 7 8 8 7 6 6 5 5 5 4 4 4 4 3 3 3 4 4 4 4 4 4 4 4 6 9 9 10 10 10 8 7 7 7 7 8 8 8 8 8 8
8 7 7 6 6 6 6 5 5 5 5 5 4 4 3 4 4 4 4 4 4 5 4 4 5 6 8 9 10 11 11 10 7 7 8 8 8 9 9 8 8 8
8 6 7 6 6 6 6 6 6 5 5 4 4 4 4 4 4 4 4 4 5 5 4 4 6 6 9 10 10 11 11 10 8 8 8 9 9 9 8 8 8 8
8 7 7 6 6 6 6 6 5 5 5 4 4 4 4 4 4 5 4 4 5 4 4 5 5 9 10 11 11 11 11 10 8 8 7 8 8 9 9 9 9 9
7 7 7 7 7 7 7 6 5 5 5 4 4 3 3 3 3 3 4 5 5 4 5 5 6 9 10 11 11 11 11 7 6 7 7 8 9 9 9 9 9 10
9 8 8 8 7 7 6 6 6 5 5 4 4 4 4 4 4 4 4 5 5 5 5 5 6 8 10 11 11 11 8 5 6 6 7 8 8 9 9 9 10 10
9 8 8 8 8 9 8 6 5 4 5 4 5 4 4 4 4 4 4 5 5 5 5 5 6 8 10 12 12 11 9 7 6 6 7 7 8 9 8 9 10 15
6 7 8 9 9 8 7 7 6 5 4 4 3 3 3 3 4 4 4 4 5 5 7 7 7 7 11 12 12 10 8 6 6 6 7 7 7 8 8 9 10 11
6 12 11 14 12 9 6 5 4 5 5 5 4 3 4 4 4 4 5 4 4 5 6 6 6 6 8 12 11 11 11 7 6 6 7 8 8 8 9 10 11 11
Wind_Direction
105 107 107 105 101 100 100 99 91 93 89 88 90 87 80 74 64 64 64 63 57 57 50 45 39 37 33 35 31 39 44 40 37 26 18 20 25 17 11 5 4 359
109 108 107 107 106 103 103 106 107 104 102 97 92 92 87 84 70 65 62 65 64 60 55 49 45 40 35 36 29 41 48 44 46 26 16 24 10 7 9 356 358 348
121 122 121 120 121 123 121 119 115 110 102 98 98 89 88 76 66 64 62 63 73 66 56 52 50 47 38 31 19 38 35 34 30 15 360 14 359 355 342 334 342 339
125 123 122 125 128 131 131 126 123 117 118 106 86 83 88 92 99 95 84 68 65 64 56 48 43 36 29 21 10 26 23 30 25 357 349 354 354 350 343 338 327 326
133 130 128 127 129 130 131 128 121 114 107 105 111 119 123 124 114 85 73 69 64 52 48 41 37 33 19 17 11 16 10 13 18 359 349 344 346 343 333 330 327 322
134 133 133 135 137 139 133 124 119 120 126 133 137 139 115 102 82 73 62 55 51 46 37 36 27 25 17 11 4 14 1 1 357 348 341 332 333 331 319 316 315 314
144 143 142 140 141 136 126 127 137 144 138 132 125 94 90 82 71 61 54 49 44 39 31 22 19 10 10 359 359 357 349 345 336 335 330 324 322 315 310 307 305 305
148 147 147 148 145 142 139 144 145 132 126 118 96 84 72 64 64 59 52 45 45 36 29 21 9 4 358 351 347 340 336 338 327 331 323 321 319 313 315 311 306 302
150 152 153 153 148 147 144 136 126 116 109 98 92 98 88 71 64 65 59 59 55 47 29 18 359 352 350 342 333 329 322 321 320 318 317 314 313 309 311 309 305 304
156 156 157 158 154 146 139 128 123 113 106 108 114 111 114 96 76 65 73 56 62 57 27 358 343 332 325 318 313 309 306 304 305 302 298 296 294 298 302 303 301 302
165 165 163 161 151 144 138 128 123 126 124 126 134 134 127 131 115 70 40 51 356 293 298 281 288 294 289 285 283 282 284 285 286 288 286 284 283 284 288 288 289 288
172 170 165 159 151 141 135 131 133 136 141 140 139 143 135 126 100 39 271 272 244 247 252 263 266 274 276 277 281 282 282 282 281 280 279 279 278 277 277 281 282 285
180 176 167 160 151 138 134 139 143 144 152 151 144 139 147 174 183 224 250 246 257 241 258 261 274 275 276 280 282 282 281 281 281 277 278 277 275 274 275 275 276 277
187 181 169 157 141 135 141 146 147 152 157 152 147 157 157 193 222 234 249 246 254 254 259 268 274 276 277 279 281 281 281 278 279 281 282 281 279 278 275 271 270 272
183 174 166 144 138 142 151 157 158 158 159 154 151 151 159 196 225 242 251 249 248 252 252 262 268 272 272 284 290 288 287 289 285 282 283 283 282 281 279 275 271 270
179 169 166 150 151 160 164 164 162 163 164 158 153 158 178 207 222 250 248 254 253 248 242 245 255 257 263 270 275 284 292 289 287 284 284 281 284 285 280 275 273 272
176 176 170 166 164 164 163 162 164 162 164 158 154 164 189 205 228 234 239 245 244 246 244 242 247 252 262 274 281 283 285 285 283 283 280 280 277 280 283 284 279 279
183 176 175 171 162 167 162 163 156 158 165 162 165 174 196 199 224 234 238 244 244 245 243 244 255 258 269 279 284 283 281 284 283 280 280 277 279 278 281 283 286 287
186 181 179 169 170 162 160 155 160 167 167 168 177 176 180 207 222 224 231 238 246 247 247 250 256 263 274 281 283 283 283 285 281 277 278 276 277 278 279 281 286 287
186 177 179 175 164 159 164 169 171 182 175 169 160 171 193 212 219 221 233 235 241 249 251 250 261 265 276 281 284 285 286 286 279 279 276 274 274 277 279 280 282 285
182 184 184 171 165 166 168 175 175 172 164 173 172 184 193 206 214 217 224 230 239 244 251 256 258 269 279 285 287 287 287 288 280 277 274 273 273 275 277 279 279 280
180 185 181 170 172 173 176 180 175 175 173 171 168 185 196 204 224 216 222 225 232 237 246 251 259 269 281 284 284 285 289 287 277 272 272 270 268 268 270 273 280 281
185 184 179 174 173 172 180 180 171 173 174 166 173 194 194 205 204 213 217 223 228 231 244 257 262 271 278 280 283 285 290 276 270 267 265 266 269 272 275 273 274 274
187 179 171 173 172 184 178 179 171 172 172 174 183 188 205 201 205 214 220 223 223 230 235 252 259 265 272 280 282 281 277 273 269 267 269 268 275 271 271 274 275 274
176 174 177 175 180 183 169 171 175 174 161 164 185 194 207 199 209 221 219 227 221 230 241 248 260 264 272 278 279 277 276 266 263 268 269 272 277 280 277 274 277 276
176 175 178 173 178 158 163 170 151 151 169 177 185 195 203 203 208 220 219 231 221 223 231 241 251 256 263 275 279 278 275 271 267 263 269 276 277 278 281 277 273 273